{"data":{"norad_id":65501,"intl_designator":"2025-198K","name":"STARLINK-35140","alt_names":[],"object_type":"PAYLOAD","status":"ACTIVE","operator":null,"country":"US","launch_date":"2025-09-05","launch_site_code":"AFETR","launch_vehicle":null,"mission":null,"orbit_class":"UNKNOWN","rcs_meters":null,"size_class":null,"mass_kg":null,"dimensions":null,"purposes":["comms"],"wikipedia_slug":null,"has_3d_model":false,"image_url":null,"decayed_at":null,"tle_current":{"epoch":"2026-05-25T02:19:20.839872Z","epoch_age_seconds":63344,"freshness":"FRESH","line1":"1 65501U 25198K   26145.09676898  .00035630  00000+0  10610-2 0  9999","line2":"2 65501  53.1596 275.0106 0001291  97.9629 262.1520 15.34389043 40332","mean_motion":15.34389043,"eccentricity":0.0001291,"inclination_deg":53.1596,"raan_deg":275.0106,"arg_perigee_deg":97.9629,"mean_anomaly_deg":262.152,"bstar":0.001061,"rev_number":4033,"period_min":93.848428243762,"perigee_km":461.85265023461,"apogee_km":463.61896359336,"semimajor_km":6840.872806914,"source":"CELESTRAK","updated_at":"2026-05-25T13:38:20.841407Z"}}}